Weather reports worldwide

Advertisment
Chino, ca, United States of America (2074348): temperature & dewpoint: 12.01.2020 03:00:00 - 18.01.2020 03:00:00 (PST)Chino, ca, United States of America (2074348): wind speed & gusts: 12.01.2020 03:00:00 - 18.01.2020 03:00:00 (PST)Chino, ca, United States of America (2074348): wind direction: 12.01.2020 03:00:00 - 18.01.2020 03:00:00 (PST)Chino, ca, United States of America (2074348): reduced air pressure: 12.01.2020 03:00:00 - 18.01.2020 03:00:00 (PST)Chino, ca, United States of America (2074348): visibility: 12.01.2020 03:00:00 - 18.01.2020 03:00:00 (PST)Chino, ca, United States of America (2074348): precipitation: 12.01.2020 03:00:00 - 18.01.2020 03:00:00 (PST)
Date & Time tt [°C] td [°C] ff [km/h] ff [kn] fx [km/h] fx [kn] dd ppp [hPa] vv [km] rr [mm]
18.01.2020 03:00:00 5,6 2,2 0 0 - - N 1022,9 16 -
18.01.2020 02:00:00 6,7 3,9 5 3 - - ENE 1023,3 16 -
18.01.2020 01:00:00 4,4 3,9 0 0 - - N 1023,6 15 -
18.01.2020 00:00:00 5,6 4,4 0 0 - - N 1023,6 15 -
17.01.2020 23:00:00 5,0 3,3 0 0 - - N 1023,8 16 -
17.01.2020 22:00:00 7,8 5,0 5 3 - - NNE 1023,6 16 -
17.01.2020 21:00:00 8,9 5,0 0 0 - - N 1023,1 16 -
17.01.2020 20:00:00 9,4 5,0 0 0 - - N 1023,0 16 -
17.01.2020 19:00:00 8,9 4,4 8 4 - - W 1023,0 16 -
17.01.2020 18:00:00 10,6 6,1 11 6 - - WSW 1022,5 16 -
17.01.2020 17:00:00 14,4 3,9 9 5 - - WNW 1022,2 16 -
17.01.2020 16:00:00 17,2 3,3 0 0 - - N 1022,2 16 -
17.01.2020 15:00:00 16,7 3,9 5 3 - - N 1022,0 16 -
17.01.2020 14:00:00 16,1 5,0 8 4 - - - 1022,5 16 -
17.01.2020 13:00:00 16,1 7,2 9 5 - - - 1022,9 16 -
17.01.2020 12:00:00 15,0 7,2 5 3 - - - 1023,6 16 -
17.01.2020 11:00:00 13,9 8,3 0 0 - - N 1024,3 16 -
17.01.2020 10:00:00 11,7 8,3 - - - - - 1024,0 16 -
17.01.2020 09:00:00 10,6 8,9 8 4 - - E 1023,8 16 -
17.01.2020 08:00:00 9,4 8,9 0 0 - - N 1022,8 16 -
17.01.2020 07:00:00 9,4 8,3 - - - - - 1022,1 16 -
17.01.2020 06:00:00 8,3 7,8 0 0 - - N 1021,5 4,8 0,0
17.01.2020 05:00:00 8,9 7,8 5 3 - - ESE 1020,9 8 1,5
17.01.2020 04:00:00 8,9 7,8 8 4 - - E 1020,9 8 0,3
17.01.2020 03:00:00 8,9 8,9 0 0 - - N 1020,8 10 0,3
17.01.2020 02:00:00 8,9 8,3 0 0 - - N 1021,0 6 1,0
17.01.2020 01:00:00 8,9 7,8 11 6 - - NW 1020,6 4,8 0,5
17.01.2020 00:00:00 8,9 7,8 13 7 - - NW 1020,8 10 0,0
16.01.2020 23:00:00 8,9 7,2 13 7 - - WNW 1021,2 11 0,5
16.01.2020 22:00:00 10,0 6,7 11 6 - - WNW 1020,1 16 0,0
16.01.2020 21:00:00 8,3 5,0 5 3 - - NW 1019,6 16 -
16.01.2020 20:00:00 10,6 6,1 11 6 - - SW 1019,4 16 -
16.01.2020 19:00:00 11,1 6,7 16 9 - - WSW 1019,2 16 -
16.01.2020 18:00:00 9,4 5,6 13 7 - - W 1018,7 16 -
16.01.2020 17:00:00 11,1 6,7 13 7 - - WSW 1018,1 16 -
16.01.2020 16:00:00 13,9 7,2 18 10 - - W 1017,5 16 -
16.01.2020 15:00:00 14,4 7,8 22 12 - - W 1016,9 13 -
16.01.2020 14:00:00 15,6 7,8 24 13 - - WSW 1016,5 11 -
16.01.2020 13:00:00 15,6 7,8 9 5 - - W 1016,3 11 -
16.01.2020 12:00:00 13,9 8,3 8 4 - - SW 1016,9 8 -
16.01.2020 11:00:00 12,8 8,9 5 3 - - - 1018,4 2,8 -
16.01.2020 10:00:00 10,6 8,3 8 4 - - N 1018,6 2,4 -
16.01.2020 09:00:00 7,8 6,1 0 0 - - N 1018,1 3,2 -
16.01.2020 08:00:00 5,0 3,9 0 0 - - N 1017,1 3,2 -
16.01.2020 07:00:00 3,3 2,2 0 0 - - N 1016,6 4,0 -
16.01.2020 06:00:00 4,4 3,9 0 0 - - N 1017,0 4,0 -
16.01.2020 05:00:00 5,0 3,9 8 4 - - NE 1016,9 4,0 -
16.01.2020 04:00:00 5,0 3,9 0 0 - - N 1016,7 1,6 -
16.01.2020 03:00:00 3,9 3,3 0 0 - - N 1016,6 0,4 -
16.01.2020 02:00:00 5,6 5,0 0 0 - - N 1016,8 4,0 -
16.01.2020 01:00:00 6,7 5,6 5 3 - - NNE 1016,5 3,2 -
16.01.2020 00:00:00 7,2 6,1 0 0 - - N 1016,1 2,0 -
15.01.2020 23:00:00 6,7 6,1 0 0 - - N 1016,7 2,8 -
15.01.2020 22:00:00 8,3 7,2 0 0 - - N 1016,8 4,8 -
15.01.2020 21:00:00 8,3 6,7 0 0 - - N 1016,0 4,8 -
15.01.2020 20:00:00 12,2 8,3 5 3 - - - 1015,3 6 -
15.01.2020 19:00:00 11,7 7,2 0 0 - - N 1015,2 8 -
15.01.2020 18:00:00 12,2 6,1 5 3 - - WSW 1015,1 8 -
15.01.2020 17:00:00 13,9 6,7 8 4 - - WSW 1014,6 10 -
15.01.2020 16:00:00 16,7 7,2 9 5 - - WSW 1014,3 10 -
15.01.2020 15:00:00 18,3 4,4 0 0 54 29 N 1014,2 10 -
15.01.2020 14:00:00 17,2 5,6 - - - - - 1014,2 - -
15.01.2020 13:00:00 16,1 7,2 0 0 - - N 1014,8 6 -
15.01.2020 12:00:00 14,4 7,8 0 0 - - N 1015,9 3,2 -
15.01.2020 11:00:00 10,6 7,8 5 3 - - SE 1017,6 1,6 -
15.01.2020 10:00:00 7,8 7,2 8 4 - - SE 1018,2 0,8 -
15.01.2020 09:00:00 6,7 6,7 0 0 - - N 1017,9 0,4 -
15.01.2020 08:00:00 6,7 6,1 5 3 - - E 1017,6 - -
15.01.2020 07:00:00 7,8 6,7 0 0 - - N 1017,2 0,8 -
15.01.2020 06:00:00 7,8 6,7 8 4 - - ESE 1017,0 0,4 -
15.01.2020 05:00:00 7,2 6,1 0 0 - - N 1017,1 4,8 -
15.01.2020 04:00:00 6,1 5,6 0 0 - - N 1017,2 2,0 -
15.01.2020 03:00:00 3,9 3,9 9 5 - - WSW 1017,9 1,6 -
15.01.2020 02:00:00 7,2 6,1 8 4 - - NE 1018,1 4,0 -
15.01.2020 01:00:00 6,1 5,6 0 0 - - N 1018,0 0,4 -
15.01.2020 00:00:00 7,2 6,7 0 0 - - N 1018,3 1,2 -
14.01.2020 23:00:00 7,2 6,1 5 3 - - SE 1019,3 4,0 -
14.01.2020 22:00:00 9,4 7,8 0 0 - - N 1019,5 4,8 -
14.01.2020 21:00:00 9,4 7,2 0 0 - - N 1018,9 4,8 -
14.01.2020 20:00:00 9,4 7,2 5 3 - - WSW 1018,2 6 -
14.01.2020 19:00:00 8,9 6,7 9 5 - - NW 1018,1 8 -
14.01.2020 18:00:00 10,6 6,7 8 4 - - W 1017,8 11 -
14.01.2020 17:00:00 12,2 6,7 11 6 - - WSW 1017,6 11 -
14.01.2020 16:00:00 16,1 6,7 0 0 - - N 1017,7 11 -
14.01.2020 15:00:00 16,1 7,2 0 0 - - N 1017,7 10 -
14.01.2020 14:00:00 16,7 7,2 0 0 - - N 1017,9 11 -
14.01.2020 13:00:00 15,6 7,8 0 0 - - N 1019,0 10 -
14.01.2020 12:00:00 14,4 8,9 5 3 - - - 1020,4 8 -
14.01.2020 11:00:00 12,2 7,8 0 0 - - N 1022,1 8 -
14.01.2020 10:00:00 10,0 6,7 0 0 - - N 1022,5 8 -
14.01.2020 09:00:00 7,2 5,6 0 0 - - N 1021,9 6 -
14.01.2020 08:00:00 5,0 4,4 0 0 - - N 1021,1 4,0 -
14.01.2020 07:00:00 4,4 3,3 8 4 - - N 1020,3 0,8 -
14.01.2020 06:00:00 3,3 2,8 0 0 - - N 1020,0 1,2 -
14.01.2020 05:00:00 4,4 3,9 0 0 - - N 1019,7 0,8 -
14.01.2020 04:00:00 4,4 3,9 0 0 - - N 1019,5 2,4 -
14.01.2020 03:00:00 4,4 3,9 5 3 - - NNW 1019,6 0,8 -
14.01.2020 02:00:00 5,6 5,0 0 0 - - N 1019,6 0,4 -
14.01.2020 01:00:00 5,6 5,0 0 0 - - N 1019,6 2,8 -
14.01.2020 00:00:00 8,3 6,7 0 0 - - N 1019,6 11 -
13.01.2020 23:00:00 7,8 6,7 0 0 - - N 1019,8 11 -
13.01.2020 22:00:00 8,3 6,7 0 0 - - N 1019,4 11 -
13.01.2020 21:00:00 8,9 6,1 0 0 - - N 1019,4 16 -
13.01.2020 20:00:00 8,3 6,1 9 5 - - NW 1019,1 15 -
13.01.2020 19:00:00 9,4 6,1 9 5 - - W 1019,0 16 -
13.01.2020 18:00:00 10,6 6,1 11 6 - - WSW 1018,8 16 -
13.01.2020 17:00:00 13,3 6,7 11 6 - - WSW 1018,2 16 -
13.01.2020 16:00:00 16,7 5,6 0 0 54 29 N 1017,9 16 -
13.01.2020 15:00:00 17,2 6,1 5 3 - - NNE 1017,8 16 -
13.01.2020 14:00:00 16,7 5,6 0 0 - - N 1018,3 16 -
13.01.2020 13:00:00 16,1 6,1 0 0 - - N 1018,9 16 -
13.01.2020 12:00:00 15,6 6,7 0 0 - - N 1019,6 16 -
13.01.2020 11:00:00 13,9 6,7 0 0 - - N 1020,7 11 -
13.01.2020 10:00:00 12,8 7,8 8 4 - - - 1021,1 10 -
13.01.2020 09:00:00 11,1 7,8 5 3 - - - 1020,9 8 -
13.01.2020 08:00:00 9,4 7,2 0 0 - - N 1020,3 8 -
13.01.2020 07:00:00 7,8 6,7 0 0 - - N 1020,0 8 -
13.01.2020 06:00:00 7,8 6,1 5 3 - - N 1019,3 10 -
13.01.2020 05:00:00 8,3 6,1 0 0 - - N 1018,8 11 -
13.01.2020 04:00:00 7,8 6,7 5 3 - - WSW 1018,8 10 -
13.01.2020 03:00:00 7,8 6,7 8 4 - - N 1018,9 8 -
13.01.2020 02:00:00 6,7 5,6 0 0 - - N 1019,0 4,8 -
13.01.2020 01:00:00 6,7 5,6 0 0 - - N 1018,8 8 -
13.01.2020 00:00:00 6,7 5,0 0 0 - - N 1018,9 10 -
12.01.2020 23:00:00 7,8 6,1 5 3 - - E 1019,0 10 -
12.01.2020 22:00:00 7,8 5,6 0 0 - - N 1019,1 13 -
12.01.2020 21:00:00 7,2 5,0 8 4 - - W 1018,2 15 -
12.01.2020 20:00:00 7,8 5,6 9 5 - - WNW 1018,1 16 -
12.01.2020 19:00:00 9,4 6,1 9 5 - - WNW 1017,6 16 -
12.01.2020 18:00:00 10,6 6,7 8 4 - - W 1017,4 16 -
12.01.2020 17:00:00 13,3 6,7 15 8 - - SW 1016,8 16 -
12.01.2020 16:00:00 15,6 6,1 15 8 - - WSW 1016,5 16 -
12.01.2020 15:00:00 16,7 7,8 8 4 - - WSW 1016,1 13 -
12.01.2020 14:00:00 16,7 6,7 0 0 - - N 1016,6 13 -
12.01.2020 13:00:00 15,6 6,1 5 3 - - W 1017,3 13 -
12.01.2020 12:00:00 13,9 6,7 0 0 - - N 1018,2 13 -
12.01.2020 11:00:00 12,8 7,2 0 0 - - N 1019,6 10 -
12.01.2020 10:00:00 10,6 7,2 0 0 - - N 1020,6 10 -
12.01.2020 09:00:00 10,0 6,7 9 5 - - N 1020,5 10 -
12.01.2020 08:00:00 6,7 4,4 8 4 - - E 1019,8 10 -
12.01.2020 07:00:00 5,0 3,9 5 3 - - NNE 1020,1 8 -
12.01.2020 06:00:00 5,6 4,4 0 0 - - N 1020,0 4,8 -
12.01.2020 05:00:00 4,4 3,3 0 0 - - N 1019,3 4,8 -
12.01.2020 04:00:00 6,1 5,0 5 3 - - S 1018,9 6 -
12.01.2020 03:00:00 6,1 5,6 5 3 - - WSW 1019,2 6 -

tt = temperature
td = dewpoint
ff = wind speed
fx = gusts
dd = wind direction
ppp = reduced air pressure
vv = visibility
rr = precipitation

Next stations